Location: Roland
(31.1349°N, 85.4372°W)
Time: 02:10:05
(UTC+00:00)

S-56A Canister/Altair - Pass Details

Date: 28 April 2021
Orbit: 632 x 2500 km, 38.9° (Epoch: 06 May)

Event Time Altitude Azimuth Distance (km) Brightness Sun altitude
Rises 05:37:04 0° 287° (WNW) 4,785 11.8 -44.6°
Reaches altitude 10° 05:40:54 10° 293° (WNW) 3,481 11.0 -44.6°
Enters shadow 05:43:11 18° 299° (WNW) 2,708 10.4 -44.6°
